SA19 VQPR-VNKT

Flight info

Callsign SA19
Flight time N/A
Altitude 34000
Route VQPR SUBSU TUMLI RATAN VNKT
Aircraft A319/M-ICAO/S

Departure

Time 2026-05-01 14:48
Airport Paro International Airport (VQPR)

Arrival

Time N/A
Airport Tribhuvan International Airport (VNKT)
Time Latitude Longitude Altitude Speed Heading
2026-05-01 14:21 27.40532 89.42167 7346 ft 0 kts 242°
2026-05-01 14:41 27.40533 89.42168 7346 ft 3 kts 242°
2026-05-01 14:41 27.40551 89.42207 7346 ft 5 kts 240°
2026-05-01 14:41 27.40584 89.42219 7347 ft 5 kts 160°
2026-05-01 14:42 27.40591 89.42215 7347 ft 0 kts 148°
2026-05-01 14:43 27.40586 89.42220 7347 ft 4 kts 122°
2026-05-01 14:43 27.40573 89.42300 7345 ft 14 kts 139°
2026-05-01 14:43 27.40498 89.42344 7343 ft 11 kts 149°
2026-05-01 14:44 27.40419 89.42397 7341 ft 15 kts 149°
2026-05-01 14:44 27.40180 89.42561 7330 ft 24 kts 150°
2026-05-01 14:44 27.40024 89.42662 7323 ft 27 kts 150°
2026-05-01 14:45 27.39851 89.42773 7318 ft 29 kts 150°
2026-05-01 14:45 27.39517 89.42986 7309 ft 6 kts 153°
2026-05-01 14:45 27.39514 89.42987 7309 ft 0 kts 154°
2026-05-01 14:46 27.39495 89.42990 7309 ft 4 kts 178°
2026-05-01 14:46 27.39506 89.42975 7309 ft 5 kts 331°
2026-05-01 14:46 27.39538 89.42963 7310 ft 5 kts 342°
2026-05-01 14:47 27.39572 89.42947 7310 ft 5 kts 331°
2026-05-01 14:47 27.39615 89.42921 7311 ft 13 kts 332°
2026-05-01 14:47 27.39953 89.42711 7320 ft 97 kts 330°
2026-05-01 14:48 27.41891 89.41515 8003 ft 187 kts 334°
2026-05-01 14:48 27.43038 89.40936 8840 ft 203 kts 335°
2026-05-01 14:48 27.45542 89.38253 9450 ft 297 kts 279°